EW9311 Weather Reports


Display with metric or nautical units.
time (UTC)temp
F
wind
direction
speed
MPH
gust
MPH
rain 1hr
in
rain 24hr
in
rain mn
in
humidity
%
barometer
mb
20260906144535 47 0 0.0 0.0 0.00 0.00 0.00 92 1018.6
20260906143034 47 0 0.0 1.0 0.00 0.00 0.00 91 1018.6
20260906141540 48 0 0.0 0.0 0.00 0.00 0.00 90 1018.6
20260906140045 48 0 0.0 0.0 0.00 0.00 0.00 92 1018.7
20260906134536 48 0 0.0 0.0 0.00 0.00 0.00 91 1018.7
20260906133046 48 0 0.0 0.0 0.00 0.00 0.00 91 1018.9
20260906131538 47 0 0.0 0.0 0.00 0.00 0.00 93 1019.2
20260906130038 47 0 0.0 0.0 0.00 0.00 0.00 91 1019.1
20260906124538 48 0 0.0 0.0 0.00 0.01 0.00 92 1019.4
20260906123041 48 0 0.0 0.0 0.00 0.01 0.00 91 1019.6
20260906121535 48 0 0.0 0.0 0.00 0.01 0.00 91 1019.7
20260906120044 48 0 0.0 0.0 0.00 0.01 0.00 89 1019.7
20260906114536 49 0 0.0 0.0 0.00 0.02 0.00 90 1019.9
20260906113040 49 0 0.0 0.0 0.00 0.02 0.00 90 1019.9
20260906111538 49 0 0.0 0.0 0.00 0.02 0.00 87 1020.1
20260906110039 50 0 0.0 0.0 0.00 0.02 0.00 88 1020.2
20260906104536 51 0 0.0 0.0 0.00 0.02 0.00 87 1020.4
20260906103036 51 0 0.0 0.0 0.00 0.02 0.00 86 1020.4
20260906101533 51 0 0.0 0.0 0.00 0.02 0.00 86 1020.2
20260906100034 50 0 0.0 0.0 0.00 0.02 0.00 86 1020.2
20260906094535 50 0 0.0 0.0 0.00 0.02 0.00 88 1020.3
20260906093046 49 0 0.0 0.0 0.00 0.02 0.00 89 1020.4
20260906091533 49 0 0.0 0.0 0.00 0.02 0.00 88 1020.5
20260906084535 50 0 0.0 0.0 0.00 0.02 0.00 86 1020.5
20260906083041 50 0 0.0 0.0 0.00 0.02 0.00 87 1020.7
20260906081536 50 0 0.0 0.0 0.00 0.02 0.00 87 1020.7
20260906080036 51 0 0.0 0.0 0.00 0.02 0.00 87 1020.9
20260906074547 50 0 0.0 0.0 0.00 0.02 0.02 88 1020.8
20260906073035 50 0 0.0 0.0 0.00 0.02 0.02 88 1020.5
20260906071535 50 0 0.0 0.0 0.00 0.02 0.02 89 1020.6
20260906070036 51 0 0.0 0.0 0.00 0.02 0.02 87 1020.5
20260906064536 51 0 0.0 0.0 0.00 0.02 0.02 87 1020.4
20260906063034 52 0 0.0 0.0 0.00 0.02 0.02 86 1020.2
20260906061546 53 0 0.0 0.0 0.00 0.02 0.02 84 1020.4
20260906060036 53 0 0.0 0.0 0.00 0.02 0.02 84 1020.2
20260906054539 54 0 0.0 0.0 0.00 0.02 0.02 82 1020.4
20260906053034 55 0 0.0 0.0 0.00 0.02 0.02 82 1020.2
20260906051538 55 0 0.0 0.0 0.00 0.02 0.02 80 1020.2
20260906050035 56 0 0.0 0.0 0.00 0.02 0.02 78 1020.2
20260906044534 57 0 0.0 0.0 0.00 0.02 0.02 77 1020.2
20260906043035 58 0 0.0 0.0 0.00 0.02 0.02 75 1020.1
20260906041546 59 0 0.0 0.0 0.00 0.02 0.02 75 1020.1
20260906040035 60 0 0.0 0.0 0.00 0.02 0.02 73 1020.0
20260906034543 63 0 0.0 1.0 0.00 0.02 0.02 69 1019.9
20260906033044 66 0 0.0 0.0 0.00 0.02 0.02 62 1019.9
20260906031539 66 0 0.0 0.0 0.00 0.02 0.02 59 1019.9
20260906030043 66 0 0.0 0.0 0.00 0.02 0.02 60 1020.0
20260906024537 67 0 0.0 0.0 0.00 0.02 0.02 59 1020.0
20260906023034 66 0 0.0 1.0 0.00 0.02 0.02 59 1019.9
20260906021537 67 0 0.0 1.0 0.00 0.02 0.02 60 1019.9
20260906020039 67 0 0.0 2.0 0.00 0.02 0.02 61 1019.9
20260906014546 67 0 0.0 4.0 0.00 0.02 0.02 61 1019.9
20260906013037 66 0 0.0 3.0 0.00 0.02 0.02 63 1019.9
20260906011543 67 0 1.0 7.0 0.00 0.02 0.02 60 1019.9
20260906010058 67 0 0.0 9.0 0.00 0.02 0.02 61 1019.9
20260906004543 66 0 0.0 10.0 0.00 0.02 0.02 62 1019.9
20260906003042 67 0 0.0 4.0 0.00 0.02 0.02 61 1019.9
20260906001555 66 0 0.0 4.0 0.00 0.02 0.02 62 1019.8
20260906000036 66 0 0.0 6.0 0.00 0.02 0.02 62 1019.8
20260905234537 66 0 0.0 8.0 0.00 0.02 0.02 63 1019.7
20260905233035 66 0 0.0 8.0 0.00 0.02 0.02 62 1019.8
20260905231542 66 0 0.0 11.0 0.00 0.02 0.02 62 1019.7
20260905230039 66 198 0.0 3.0 0.00 0.02 0.02 64 1019.6
20260905224543 66 0 0.0 8.0 0.00 0.02 0.02 63 1019.6
20260905223039 65 0 1.0 10.0 0.00 0.02 0.02 64 1019.8
20260905221541 65 0 0.0 14.0 0.00 0.02 0.02 65 1019.9
20260905220036 65 0 1.0 10.0 0.00 0.02 0.02 65 1019.9
20260905214534 65 0 0.0 11.0 0.00 0.02 0.02 66 1019.7
20260905213045 64 0 0.0 11.0 0.00 0.02 0.02 67 1019.6
20260905211542 65 188 0.0 11.0 0.00 0.02 0.02 65 1019.5
20260905210039 65 223 0.0 11.0 0.00 0.02 0.02 67 1019.5
20260905204534 65 0 1.0 14.0 0.00 0.02 0.02 65 1019.3
20260905203051 64 0 0.0 8.0 0.00 0.02 0.02 66 1019.2
20260905201552 65 0 0.0 11.0 0.00 0.02 0.02 65 1019.1
20260905200037 64 0 1.0 12.0 0.00 0.02 0.02 67 1019.1
20260905194536 64 0 0.0 9.0 0.00 0.02 0.02 66 1019.0
20260905193037 64 227 1.0 11.0 0.00 0.02 0.02 67 1018.8
20260905191537 63 0 0.0 7.0 0.00 0.02 0.02 69 1018.6
20260905190038 62 0 1.0 12.0 0.00 0.02 0.02 69 1018.8
20260905184545 63 0 0.0 10.0 0.00 0.02 0.02 69 1018.8
20260905183043 63 0 0.0 4.0 0.00 0.02 0.02 70 1018.6
20260905181537 62 0 0.0 7.0 0.00 0.02 0.02 72 1018.4
20260905180037 62 0 0.0 1.0 0.00 0.02 0.02 74 1018.3
20260905174534 61 0 0.0 0.0 0.00 0.02 0.02 78 1018.2
20260905173034 60 0 0.0 0.0 0.00 0.02 0.02 79 1018.0
20260905171536 59 0 0.0 0.0 0.00 0.02 0.02 82 1018.0
20260905170035 57 0 0.0 0.0 0.00 0.02 0.02 87 1017.9
20260905164608 55 0 0.0 0.0 0.00 0.02 0.02 91 1018.1
20260905163036 55 0 0.0 0.0 0.00 0.02 0.02 91 1018.3
20260905161536 55 0 0.0 0.0 0.00 0.02 0.02 91 1018.2
20260905160035 55 0 0.0 0.0 0.00 0.02 0.02 91 1018.1
20260905154535 55 0 0.0 0.0 0.00 0.02 0.02 90 1018.0
20260905153037 55 0 0.0 0.0 0.00 0.02 0.02 90 1017.9
20260905151538 55 0 0.0 0.0 0.00 0.02 0.02 89 1018.1
20260905150035 55 0 0.0 0.0 0.00 0.02 0.02 89 1018.2